Flag for Switzerland Weather past 2 weeks in Martigny, Valais, Switzerland

Now
75 °F

Mild.


Feels Like: 77 °F
Forecast: 66 / 79 °F
Wind: 3 mph from West

Location: Sion

Current Time: Jul 31, 2015 at 2:09:20 PM

Latest Report: Jul 31, 2015 at 1:00 PM


Visibility: N/A

Pressure: 29.85 "Hg

Humidity: 33%

Dew point: 44 °F

Location of MartignyLocation

Historic Weather in Martigny — Graph

°F

Martigny temperature yesterday

Maximum temperature yesterday: 76 °F (at 4:00 PM)
Minimum temperature yesterday: 59 °F (at 7:00 AM)
Average temperature yesterday: 66 °F

Past Weeks' High & Low Weather Summary

 TemperatureHumidityPressure
High96 °F (Jul 16, 6:00 PM)97% (Jul 25, 4:00 AM)30.18 "Hg (Jul 25, 4:00 AM)
Low53 °F (Jul 31, 6:00 AM)19% (Jul 16, 9:00 PM)29.61 "Hg (Jul 24, 5:00 PM)
Average73 °F60%29.91 "Hg
* Reported Jul 16 12:00 Noon — Jul 31 12:00 Noon, Martigny, Weather by CustomWeather, © 2015

Note: Actual official high and low records may vary slightly from our data, if they occured in-between our weather recording intervals... More about our weather records

Advertising

Martigny weather history for previous 24 hours

 ConditionsComfort  
Time TempWeatherWind HumidityBarometerVisibility
12:00 PM
Fri, Jul 31
72 °FMild.2 mph39%29.87 "HgN/A
11:00 AM68 °FMild.2 mph46%29.92 "HgN/A
10:00 AM65 °FMild.3 mph54%29.95 "HgN/A
9:00 AM61 °FRefreshingly cool.5 mph60%29.99 "HgN/A
8:00 AM58 °FSunny.3 mph67%30.02 "Hg19 mi
7:00 AM54 °FCool.2 mph75%30.02 "HgN/A
6:00 AM53 °FCool.No wind77%30.02 "HgN/A
4:00 AM54 °FCool.No wind75%30.02 "HgN/A
3:00 AM57 °FCool.3 mph68%30.02 "HgN/A
2:00 AM57 °FPassing clouds.1 mph71%30.01 "Hg16 mi
1:00 AM61 °FRefreshingly cool.2 mph60%29.99 "HgN/A
12:00 AM60 °FRefreshingly cool.2 mph58%29.98 "HgN/A
11:00 PM
Thu, Jul 30
65 °FPassing clouds.3 mph45%29.95 "Hg16 mi
10:00 PM66 °FMild.8 mph43%29.93 "HgN/A
9:00 PM68 °FMild.14 mph40%29.90 "HgN/A
8:00 PM71 °FPartly sunny.21 mph35%29.86 "Hg16 mi
7:00 PM71 °FMild.20 mph37%29.85 "HgN/A
6:00 PM74 °FMild.15 mph36%29.83 "HgN/A
5:00 PM75 °FScattered clouds.18 mph36%29.82 "Hg16 mi
4:00 PM76 °FMild.22 mph38%29.82 "HgN/A
3:00 PM73 °FMild.21 mph40%29.83 "HgN/A
2:00 PM74 °FScattered clouds.18 mph39%29.86 "Hg16 mi
Weather by CustomWeather, © 2015

See weather overviewHow to use our weather pages